Flag for U.S.A. Weather past 2 weeks in Boston, Massachusetts, U.S.A.

Now
16 °F

Snow. Ice fog.


Feels Like: -1 °F
Forecast: 16 / 21 °F
Wind: 21 mph from North

Location: Logan International Airport

Current Time: Jan 27, 2015 at 10:29:14 AM

Latest Report: Jan 27, 2015 at 9:54 AM


Visibility: 0 mi

Pressure: 29.54 "Hg

Humidity: 84%

Dew point: 12 °F

Location of BostonLocation

Historic Weather in Boston — Graph

°F

Boston temperature yesterday

Maximum temperature yesterday: 29 °F (at 3:54 PM)
Minimum temperature yesterday: 11 °F (at 5:54 AM)
Average temperature yesterday: 20 °F

Past Weeks' High & Low Weather Summary

 TemperatureHumidityPressure
High50 °F (Jan 18, 2:54 PM)100% (Jan 12, 2:57 PM)30.66 "Hg (Jan 12, 2:57 PM)
Low9 °F (Jan 17, 7:54 AM)25% (Jan 17, 1:54 PM)29.16 "Hg (Jan 24, 4:54 PM)
Average29 °F64%30.01 "Hg
* Reported Jan 12 8:54 AM — Jan 27 8:54 AM, Boston, Weather by CustomWeather, © 2014

Note: Actual official high and low records may vary slightly from our data, if they occured in-between our weather recording intervals... More about our weather records

Advertising

Boston weather history for previous 24 hours

 ConditionsComfort  
Time TempWeatherWind HumidityBarometerVisibility
8:54 AM
Jan 27
15 °FHeavy snow. Ice fog.23 mph91%29.56 "Hg0 mi
7:54 AM15 °FHeavy snow. Ice fog.24 mph87%29.58 "Hg0 mi
6:54 AM15 °FHeavy snow. Ice fog.24 mph87%29.59 "Hg0 mi
5:54 AM15 °FHeavy snow. Ice fog.25 mph87%29.60 "Hg0 mi
4:54 AM15 °FHeavy snow. Ice fog.29 mph87%29.59 "Hg0 mi
3:54 AM16 °FSnow. Ice fog.29 mph84%29.64 "Hg0 mi
2:54 AM16 °FHeavy snow. Ice fog.22 mph92%29.68 "Hg0 mi
1:54 AM16 °FHeavy snow. Ice fog.23 mph87%29.72 "Hg0 mi
12:54 AM17 °FHeavy snow. Ice fog.25 mph88%29.76 "Hg0 mi
11:54 PM
Jan 26
19 °FSnow. Ice fog.22 mph92%29.81 "Hg1 mi
10:54 PM21 °FSnow. Ice fog.21 mph92%29.87 "Hg1 mi
9:54 PM27 °FLight snow. Ice fog.25 mph92%29.90 "Hg1 mi
8:54 PM27 °FLight snow. Ice fog.23 mph92%29.96 "Hg1 mi
6:54 PM28 °FLight snow. Mostly cloudy.24 mph81%30.03 "Hg1 mi
5:54 PM28 °FLight snow. Ice fog.17 mph85%30.03 "Hg2 mi
4:54 PM28 °FLight snow. Mostly cloudy.20 mph78%30.03 "Hg3 mi
3:54 PM29 °FLight snow. Overcast.20 mph72%30.04 "Hg10 mi
2:54 PM28 °FMore clouds than sun.18 mph75%30.05 "Hg10 mi
1:54 PM26 °FLight snow. Ice fog.15 mph84%30.06 "Hg3 mi
12:54 PM25 °FLight snow. Mostly cloudy.18 mph78%30.06 "Hg2 mi
11:54 AM22 °FLight snow. More clouds than sun.14 mph75%30.10 "Hg4 mi
10:54 AM20 °FLight snow. Overcast.16 mph74%30.13 "Hg7 mi
Weather by CustomWeather, © 2014

See weather overviewHow to use our weather pages